User: anonymous   Login
Location: Caltech
(34.1382°N, 118.1253°W)
Time: 08:23:48
(UTC-08:00)
Language:

Cosmos 2251 Rocket - Orbit

View from above orbital plane
View from above orbital plane
View from above satellite
View from above satellite

Ground track
Ground track

The orbit data is extracted from the following two-line orbital elements,

1 22676U 93036B   14325.50112306  .00000294  00000-0  11509-3 0  3760
2 22676 074.0437 098.3671 0019355 352.0322 008.0519 14.33681064120804
Epoch (UTC): 21 November 2014 12:01:37
Eccentricity: 0.0019355
inclination: 74.0437°
perigee height: 765 km
apogee height: 793 km
right ascension of ascending node: 98.3671°
argument of perigee: 352.0322°
revolutions per day: 14.33681064
mean anomaly at epoch: 8.0519°
orbit number at epoch: 12080

The dashed part of the orbit path shows where the satellite is in the earth's shadow,  

DLR